Repton, AL

11:19 AM CDT on July 23, 2016 (GMT -0500)
Middleton

Weather History for KGZH - February, 2013

Change the Weather History Date:

Monday, February 4, 2013

  Actual Average (KPRN) Record (KPRN)
Temperature  
Mean Temperature 48 °F -  
Max Temperature 62 °F 59 °F 83 °F (1957)
Min Temperature 34 °F 35 °F 13 °F (1970)
Degree Days  
Heating Degree Days 17    
Moisture  
Dew Point 36 °F    
Average Humidity 65    
Maximum Humidity 89    
Minimum Humidity 34    
Precipitation  
Precipitation 0.00 in - - ()
Sea Level Pressure  
Sea Level Pressure 30.09 in    
Wind  
Wind Speed 2 mph (South)    
Max Wind Speed 9 mph    
Max Gust Speed -    
Visibility 10 miles    
Events Rain    
Averages and records for this station are not official NWS values.
T = Trace of Precipitation, MM = Missing Value Source: NWS Daily Summary

Daily Weather History Graph

Daily Weather History Graph

Search for Another Location

Airport or City:

Trip Planner

Search our weather history database for the weather conditions in past years. The results will help you decide how hot, cold, wet, or windy it might be!

Date:

Astronomy

Feb. 04, 2013 Rise Set
Actual Time 6:38 AM CST 5:26 PM CST
Civil Twilight 6:13 AM CST 5:51 PM CST
Nautical Twilight 5:44 AM CST 6:20 PM CST
Astronomical Twilight 5:15 AM CST 6:48 PM CST
Moon 1:09 AM CST (2/4) 11:54 AM CST (2/4)
Length of Visible Light 11h 38m
Length of Day
10h 47m
Last Quarter, 37% of the Moon is Illuminated
Feb 4
Last Quarter
Feb 10
New
Feb 17
First Quarter
Feb 25
Full
Mar 4
Last Quarter

Hourly Weather History & Observations

Time (CST) Temp. Dew Point Humidity Pressure Visibility Wind Dir Wind Speed Gust Speed Precip Events Conditions
12:53 AM 36.0 °F 32.0 °F 86% 30.13 in 10.0 mi Calm Calm - N/A   Clear
1:53 AM 35.1 °F 32.0 °F 89% 30.13 in 10.0 mi Calm Calm - N/A   Clear
2:53 AM 35.1 °F 30.9 °F 85% 30.11 in 10.0 mi Calm Calm - N/A   Clear
4:53 AM 34.0 °F 30.9 °F 89% 30.12 in 10.0 mi Calm Calm - N/A   Clear
5:53 AM 35.1 °F 32.0 °F 89% 30.12 in 10.0 mi Calm Calm - N/A   Clear
6:53 AM 37.0 °F 34.0 °F 89% 30.12 in 10.0 mi Calm Calm - N/A   Clear
7:53 AM 39.9 °F 36.0 °F 86% 30.14 in 10.0 mi Calm Calm - N/A   Clear
8:53 AM 48.9 °F 36.0 °F 61% 30.14 in 10.0 mi SE 4.6 mph - N/A   Clear
9:53 AM 54.0 °F 32.0 °F 43% 30.16 in 10.0 mi ESE 4.6 mph - N/A   Clear
10:53 AM 57.9 °F 30.9 °F 36% 30.14 in 10.0 mi SSE 3.5 mph - N/A   Clear
11:53 AM 59.0 °F 32.0 °F 36% 30.13 in 10.0 mi South 5.8 mph - N/A   Clear
12:53 PM 61.0 °F 33.1 °F 35% 30.09 in 10.0 mi SSW 9.2 mph - N/A   Clear
1:53 PM 62.1 °F 33.1 °F 34% 30.06 in 10.0 mi SSW 6.9 mph - N/A   Clear
2:53 PM 62.1 °F 33.1 °F 34% 30.06 in 10.0 mi SW 9.2 mph - N/A   Clear
3:53 PM 61.0 °F 35.1 °F 38% 30.05 in 10.0 mi SSW 4.6 mph - N/A   Clear
4:53 PM 59.0 °F 37.9 °F 46% 30.04 in 10.0 mi South 4.6 mph - N/A   Partly Cloudy
6:53 PM 54.0 °F 42.1 °F 64% 30.04 in 10.0 mi Calm Calm - N/A   Scattered Clouds
7:53 PM 52.0 °F 43.0 °F 71% 30.03 in 10.0 mi Calm Calm - N/A   Clear
8:53 PM 50.0 °F 44.1 °F 80% 30.05 in 10.0 mi Calm Calm - N/A   Clear
9:53 PM 48.9 °F 44.1 °F 83% 30.04 in 10.0 mi Calm Calm - N/A   Clear
10:53 PM 48.9 °F 44.1 °F 83% 30.03 in 10.0 mi Calm Calm - N/A   Scattered Clouds
11:53 PM 50.0 °F 45.0 °F 83% 30.01 in 10.0 mi Calm Calm - 0.00 in Rain Light Rain